NOZ1972 ENGM-ENHD

Flight info

Callsign NOZ1972
Flight time N/A
Altitude 28000
Route ENGM/19R ATLAP DCT IPMOD DCT ULVOS
Aircraft B739/M-SDE2E3FGHIRWXY/LB1

Departure

Time N/A
Airport Oslo-Gardermoen International Airport (ENGM)

Arrival

Time 2026-04-30 19:00
Airport Haugesund Airport, Karmøy (ENHD)
Time Latitude Longitude Altitude Speed Heading
2026-04-30 18:29 60.13615 9.75856 28317 ft 411 kts 245°
2026-04-30 18:30 60.10816 9.65658 28315 ft 425 kts 244°
2026-04-30 18:30 60.07986 9.55001 28336 ft 440 kts 244°
2026-04-30 18:31 60.03614 9.38509 28330 ft 457 kts 244°
2026-04-30 18:32 59.99080 9.21548 28344 ft 463 kts 244°
2026-04-30 18:33 59.94495 9.04535 28337 ft 464 kts 244°
2026-04-30 18:33 59.89880 8.87529 28360 ft 464 kts 244°
2026-04-30 18:34 59.85245 8.70579 28375 ft 466 kts 243°
2026-04-30 18:35 59.82130 8.59254 28379 ft 467 kts 243°
2026-04-30 18:35 59.79017 8.47996 28375 ft 462 kts 243°
2026-04-30 18:36 59.74431 8.31227 28381 ft 463 kts 247°
2026-04-30 18:36 59.72683 8.19033 28394 ft 460 kts 260°
2026-04-30 18:37 59.72076 8.12793 28406 ft 460 kts 259°
2026-04-30 18:37 59.70760 8.00390 28401 ft 460 kts 258°
2026-04-30 18:38 59.69393 7.88006 28391 ft 459 kts 258°
2026-04-30 18:38 59.68720 7.81949 28401 ft 438 kts 258°
2026-04-30 18:38 59.68081 7.76220 28392 ft 415 kts 258°
2026-04-30 18:38 59.67469 7.70739 28413 ft 404 kts 258°
2026-04-30 18:39 59.66862 7.65316 28421 ft 403 kts 258°
2026-04-30 18:39 59.65660 7.54615 27990 ft 391 kts 258°
2026-04-30 18:39 59.65073 7.49413 27494 ft 385 kts 258°
2026-04-30 18:40 59.64499 7.44357 27011 ft 379 kts 258°
2026-04-30 18:40 59.63924 7.39313 26496 ft 374 kts 257°
2026-04-30 18:40 59.63355 7.34329 25994 ft 369 kts 257°
2026-04-30 18:40 59.62791 7.29418 25506 ft 365 kts 257°
2026-04-30 18:41 59.62231 7.24548 25029 ft 361 kts 257°
2026-04-30 18:41 59.61672 7.19713 24542 ft 359 kts 257°
2026-04-30 18:41 59.61116 7.14918 24072 ft 358 kts 257°
2026-04-30 18:41 59.60560 7.10141 23510 ft 357 kts 257°
2026-04-30 18:42 59.60004 7.05376 22978 ft 353 kts 256°
2026-04-30 18:42 59.58911 6.96053 22035 ft 343 kts 256°
2026-04-30 18:42 59.58379 6.91548 21573 ft 340 kts 256°
2026-04-30 18:45 59.55026 6.46811 17006 ft 320 kts 266°
2026-04-30 18:45 59.54997 6.42419 16565 ft 320 kts 266°
2026-04-30 18:45 59.54956 6.38028 16125 ft 320 kts 266°
2026-04-30 18:46 59.54908 6.33662 15681 ft 317 kts 265°
2026-04-30 18:46 59.54854 6.29341 15238 ft 314 kts 265°
2026-04-30 18:46 59.54798 6.25056 14817 ft 311 kts 265°
2026-04-30 18:46 59.54739 6.20857 14393 ft 309 kts 265°
2026-04-30 18:47 59.54679 6.16622 13943 ft 309 kts 265°
2026-04-30 18:47 59.54618 6.12384 13479 ft 309 kts 265°
2026-04-30 18:47 59.54555 6.08163 13031 ft 307 kts 265°
2026-04-30 18:47 59.54491 6.03984 12614 ft 303 kts 265°
2026-04-30 18:48 59.54426 5.99854 12190 ft 300 kts 265°
2026-04-30 18:48 59.54362 5.95763 11762 ft 298 kts 265°
2026-04-30 18:48 59.54298 5.91688 11317 ft 296 kts 265°
2026-04-30 18:48 59.54233 5.87653 10908 ft 292 kts 265°
2026-04-30 18:49 59.54170 5.83721 10777 ft 282 kts 265°
2026-04-30 18:49 59.54108 5.79898 10670 ft 276 kts 265°
2026-04-30 18:49 59.54045 5.76179 10541 ft 266 kts 265°
2026-04-30 18:49 59.53985 5.72589 10386 ft 259 kts 264°
2026-04-30 18:50 59.53922 5.69041 10027 ft 258 kts 265°
2026-04-30 18:50 59.53859 5.65526 9717 ft 255 kts 265°
2026-04-30 18:50 59.53796 5.62052 9401 ft 253 kts 265°
2026-04-30 18:50 59.53732 5.58595 9079 ft 251 kts 265°
2026-04-30 18:51 59.53669 5.55166 8773 ft 249 kts 265°
2026-04-30 18:51 59.53604 5.51761 8457 ft 248 kts 265°
2026-04-30 18:51 59.53540 5.48419 8159 ft 247 kts 265°
2026-04-30 18:51 59.53473 5.44961 7659 ft 256 kts 265°
2026-04-30 18:52 59.53404 5.41463 7198 ft 260 kts 265°
2026-04-30 18:52 59.53333 5.37890 6817 ft 261 kts 266°
2026-04-30 18:52 59.53262 5.34318 6459 ft 259 kts 266°
2026-04-30 18:52 59.53191 5.30787 6119 ft 257 kts 266°
2026-04-30 18:53 59.53119 5.27265 5782 ft 256 kts 266°
2026-04-30 18:53 59.53047 5.23788 5470 ft 254 kts 266°
2026-04-30 18:53 59.52975 5.20315 5144 ft 252 kts 266°
2026-04-30 18:53 59.52901 5.16880 4850 ft 249 kts 266°
2026-04-30 18:54 59.52830 5.13586 4793 ft 233 kts 266°
2026-04-30 18:54 59.52764 5.10513 4673 ft 217 kts 265°
2026-04-30 18:54 59.52455 5.07737 4526 ft 201 kts 240°
2026-04-30 18:54 59.51680 5.05569 4378 ft 189 kts 229°
2026-04-30 18:55 59.50747 5.03762 4055 ft 188 kts 223°
2026-04-30 18:55 59.48814 5.00264 3311 ft 188 kts 223°
2026-04-30 18:55 59.47803 4.98668 3061 ft 188 kts 207°
2026-04-30 18:56 59.45376 4.99075 2683 ft 178 kts 144°
2026-04-30 18:56 59.44558 5.00869 2541 ft 178 kts 134°
2026-04-30 18:56 59.43656 5.02525 2346 ft 174 kts 141°
2026-04-30 18:57 59.42047 5.05736 2047 ft 162 kts 136°
2026-04-30 18:57 59.41261 5.07324 1871 ft 162 kts 136°
2026-04-30 18:57 59.40497 5.08858 1651 ft 151 kts 137°
2026-04-30 18:58 59.39076 5.11706 1285 ft 148 kts 137°
2026-04-30 18:58 59.38343 5.13174 1073 ft 152 kts 136°
2026-04-30 18:58 59.37605 5.14656 847 ft 151 kts 136°
2026-04-30 18:59 59.36152 5.17572 419 ft 149 kts 136°
2026-04-30 19:00 59.34197 5.21516 87 ft 81 kts 135°
2026-04-30 19:00 59.34010 5.21882 89 ft 8 kts 135°
2026-04-30 19:00 59.33949 5.21982 93 ft 3 kts 130°
2026-04-30 19:01 59.33970 5.21991 95 ft 4 kts 307°
2026-04-30 19:01 59.34016 5.21878 91 ft 14 kts 312°
2026-04-30 19:02 59.34147 5.21886 90 ft 11 kts 46°
2026-04-30 19:02 59.34266 5.21822 89 ft 11 kts 299°
2026-04-30 19:03 59.34325 5.21813 88 ft 7 kts 44°
2026-04-30 19:03 59.34343 5.21847 86 ft 0 kts 44°